Theta_e
316 314 313 313 314 314 314 313 315 315 315 316 318 319 320 321 322 323 322 316 312 311 313 314 314 314 313 312 311 309 308 308 308 309 310 311 311 311 312 313 313 315 316 315 314 313 312 311 311 312 313 314 315 317 318 319 319 320 331 332 321 320 322 320 321 316 317 322 314 311 313 314 315 313 313 315 315 315 315 315 316 317 318 317 318 319 317 316
315 313 313 313 313 314 313 311 312 313 313 315 315 316 316 317 319 319 316 311 311 312 313 313 313 313 312 311 310 309 308 307 308 309 310 311 311 311 313 315 315 316 315 315 313 312 312 311 311 312 314 316 316 317 317 318 317 321 328 326 326 330 321 315 317 312 313 317 313 312 312 312 315 313 313 316 315 315 316 316 315 316 317 317 318 320 318 316
314 313 312 313 312 313 312 310 310 310 310 311 311 312 311 312 313 312 311 311 312 312 313 313 312 312 311 310 309 308 307 308 310 311 311 311 311 312 315 317 315 315 315 314 312 311 311 311 311 313 314 316 317 317 317 317 317 317 320 322 330 328 316 312 313 312 313 313 312 312 312 312 314 314 314 315 314 313 315 316 315 316 316 316 318 319 318 317
313 312 311 311 312 313 312 309 309 308 309 309 309 309 309 310 310 310 311 311 312 312 312 312 311 311 310 309 309 308 308 311 312 311 311 312 312 313 315 317 314 313 313 312 311 311 311 311 312 314 316 316 316 317 317 316 316 315 319 325 323 315 314 314 313 313 313 313 313 312 312 312 313 314 314 313 315 315 315 315 316 316 316 316 317 318 317 317
312 311 311 310 312 313 311 309 309 308 309 309 309 309 309 310 310 311 311 311 312 311 311 311 311 310 309 310 309 308 310 311 311 310 312 312 312 314 315 316 314 311 311 311 311 311 312 312 313 315 316 316 316 317 316 315 316 316 315 317 313 310 315 315 312 314 313 313 313 312 313 313 313 314 313 314 318 319 315 315 316 316 316 316 316 317 317 317
311 311 310 310 312 313 311 309 309 309 309 309 309 309 309 309 310 310 311 311 312 311 311 311 310 309 309 310 308 309 311 311 311 311 312 312 313 315 316 315 313 310 311 311 311 312 313 313 315 316 314 315 316 317 316 314 315 318 315 311 311 312 314 314 313 314 313 314 313 312 313 313 313 313 313 313 317 317 314 315 315 315 316 315 315 316 317 317
311 310 310 310 311 312 311 309 309 309 309 309 309 309 309 309 310 310 311 312 311 310 310 310 309 309 309 309 308 310 312 311 312 312 312 313 313 315 316 313 311 311 311 312 313 314 313 313 315 315 313 314 314 314 315 314 313 320 318 311 312 313 312 313 313 313 313 314 313 313 313 312 313 314 312 312 315 315 314 314 314 315 315 315 316 316 316 316
311 310 310 309 309 311 310 309 309 309 309 309 309 309 309 309 310 311 311 311 310 310 310 309 309 309 310 309 308 311 313 312 312 313 313 314 314 315 315 312 311 311 311 312 314 314 313 314 315 314 313 313 314 314 313 314 314 318 318 312 312 313 312 313 313 313 312 313 313 313 312 312 312 312 311 313 315 315 314 314 314 315 315 315 315 315 316 316
311 310 309 308 309 309 310 309 309 309 309 309 309 309 309 310 311 311 311 311 310 309 309 309 309 309 310 309 309 311 312 311 313 313 314 316 316 315 314 311 311 311 311 313 314 314 313 314 315 315 313 310 313 314 313 315 316 314 314 312 312 312 312 312 313 313 313 313 313 313 313 312 312 312 313 314 314 314 314 313 314 316 315 315 315 315 315 315
311 310 309 308 308 308 309 310 309 309 309 309 309 309 310 311 311 311 311 310 310 309 309 309 309 309 309 309 309 310 311 311 314 313 314 316 315 313 312 310 311 311 311 313 313 314 313 313 315 314 313 312 313 312 312 315 315 313 312 312 312 312 313 313 313 313 313 313 313 315 315 313 311 313 316 316 314 314 315 314 314 316 316 315 315 315 315 315
310 309 308 308 308 308 309 309 309 309 309 309 309 310 310 311 311 311 310 310 309 309 309 309 309 308 309 309 309 309 310 312 314 313 313 316 314 311 310 310 311 310 311 312 312 313 313 313 314 314 313 313 312 312 312 312 313 312 313 313 312 311 313 313 313 312 313 313 312 314 313 312 312 314 316 315 314 315 315 315 315 315 316 315 315 315 315 316
310 309 308 308 307 307 308 309 309 309 309 309 309 310 310 311 311 310 310 309 309 309 309 309 308 308 309 309 309 310 312 313 314 314 314 315 313 309 310 311 311 310 311 311 311 313 313 313 313 314 314 313 313 313 313 313 312 312 314 316 315 315 315 312 312 312 313 314 313 312 313 314 315 315 316 314 314 315 314 315 315 315 315 315 316 315 315 316
311 310 308 308 307 307 308 308 309 309 309 309 309 310 311 312 311 310 309 309 309 309 309 309 308 308 309 310 309 310 314 314 314 314 315 315 312 310 311 310 310 311 311 311 312 313 314 314 313 314 313 313 313 312 313 312 311 314 313 315 319 318 316 311 310 313 313 313 312 310 313 320 319 313 313 313 313 314 314 315 315 315 315 315 315 315 315 315
310 310 308 307 307 307 307 308 308 309 309 309 309 309 310 311 310 309 309 309 310 309 310 309 307 308 309 310 310 311 315 315 314 315 316 315 312 311 311 311 312 312 312 312 313 314 315 315 313 314 313 313 313 312 316 314 314 316 311 316 321 315 316 314 309 312 313 313 312 310 313 321 319 311 311 313 313 314 314 315 315 315 315 315 315 315 315 315
310 309 308 307 307 307 307 307 308 308 308 308 308 309 309 309 309 309 309 309 310 309 310 308 307 309 309 310 311 312 315 315 314 314 315 314 312 312 312 313 313 314 314 313 314 314 315 314 314 314 312 314 314 314 320 319 320 319 311 320 321 312 319 318 308 309 314 313 311 311 315 320 317 311 312 313 313 314 314 314 314 314 315 314 315 315 315 315
311 309 308 307 307 307 306 307 307 307 308 308 308 309 308 309 309 309 310 309 309 309 309 307 307 310 309 309 312 313 315 315 314 314 314 313 312 312 313 314 315 316 315 314 314 314 314 315 313 313 312 313 315 318 322 320 323 322 315 319 319 315 319 318 311 308 310 313 312 311 315 320 318 312 312 313 313 313 313 314 314 314 314 314 314 315 315 315
312 310 309 308 307 307 306 307 307 307 308 308 308 308 308 309 309 309 309 308 308 308 308 307 308 309 309 310 313 313 314 314 313 313 314 313 313 314 314 315 316 316 315 314 314 314 314 314 312 313 313 311 314 319 319 316 319 319 317 318 318 317 316 316 316 310 308 313 314 313 314 319 318 312 313 314 312 313 313 315 315 315 315 315 315 315 315 315
313 310 309 308 307 307 306 306 307 307 308 308 308 308 308 309 308 308 308 307 307 307 308 309 308 311 311 310 313 314 313 314 313 313 314 314 315 315 315 316 316 315 315 314 314 314 315 313 312 318 317 311 313 317 318 318 318 318 318 317 315 315 313 315 319 313 310 314 315 316 316 318 320 313 313 314 312 313 314 314 315 316 316 316 316 315 315 316
313 311 309 308 307 307 307 306 307 307 308 308 308 308 307 307 307 306 306 306 308 308 310 310 309 312 314 310 312 314 312 313 313 314 314 315 315 316 316 316 315 315 314 314 315 314 314 313 314 318 317 314 314 314 320 323 321 320 320 320 321 321 317 317 318 311 310 316 317 318 318 318 320 316 313 314 312 311 313 315 315 315 316 316 316 316 316 316
314 312 310 308 307 307 306 307 307 307 307 308 307 307 307 308 309 310 308 307 309 310 310 311 309 312 313 310 312 314 312 313 314 314 315 315 315 315 315 315 314 315 315 317 318 313 314 316 317 318 317 316 315 313 317 319 317 318 319 322 323 321 319 316 316 311 307 314 319 318 320 318 318 317 312 312 312 310 312 314 315 316 316 316 316 316 316 316
314 313 311 308 307 307 306 306 307 307 307 307 307 307 308 308 311 312 310 308 310 310 310 311 310 312 312 310 313 313 312 313 314 315 315 315 315 316 314 314 315 316 314 314 315 313 314 317 318 319 316 314 314 315 317 317 317 318 318 322 320 319 320 315 314 314 308 313 319 316 319 319 318 318 312 310 311 311 312 312 313 315 315 315 315 315 315 315
315 313 311 309 307 307 306 306 307 307 307 307 307 308 307 308 310 310 309 309 310 311 311 311 310 311 312 311 313 313 312 314 314 315 315 314 316 315 314 315 317 317 314 312 315 315 315 319 319 312 307 309 313 316 320 321 322 322 319 321 321 318 319 315 314 315 311 314 320 319 320 319 316 318 312 308 310 311 311 311 312 313 313 314 314 314 314 314
313 312 311 308 307 307 306 306 307 306 307 307 308 308 307 308 311 309 307 309 310 310 311 311 310 311 312 313 313 313 312 313 314 315 315 314 315 315 314 315 317 318 316 316 319 318 317 320 316 306 305 312 315 316 320 321 321 322 322 322 321 317 319 319 316 315 312 312 317 319 318 317 316 320 316 307 305 309 310 311 311 311 312 312 313 313 313 313
311 310 309 308 307 307 306 306 307 306 307 307 308 308 307 308 310 309 307 309 310 311 311 310 311 311 312 313 314 312 312 312 313 315 314 315 315 314 314 314 316 317 316 317 318 317 318 314 307 304 309 317 316 315 318 320 318 319 327 330 324 321 321 318 315 316 315 312 313 315 316 322 324 326 324 310 304 307 308 309 311 311 311 311 312 312 312 313
309 308 308 308 307 307 307 307 306 306 307 307 308 308 307 309 310 308 308 309 310 311 311 311 311 312 312 313 314 313 312 312 313 314 314 315 314 314 314 313 314 317 317 317 316 317 315 308 306 310 314 318 317 317 319 322 319 316 325 329 325 328 326 319 317 319 320 316 311 311 316 330 333 328 327 317 311 313 308 306 310 313 313 313 314 313 313 314
308 308 308 307 308 310 309 307 307 306 307 307 308 308 308 309 309 308 310 311 311 310 310 311 311 312 313 313 314 312 312 313 313 314 314 314 314 314 314 312 312 315 315 314 315 317 314 307 310 316 317 318 317 317 317 319 321 317 318 319 321 329 327 322 320 317 319 315 308 310 315 323 327 324 324 318 316 321 312 305 309 314 315 314 314 314 314 314
309 309 310 309 309 311 310 308 307 307 308 308 308 308 308 309 309 308 310 309 311 312 310 310 309 311 313 314 313 312 313 315 313 314 314 315 314 313 315 314 313 314 311 312 316 316 312 311 313 316 320 320 317 318 316 316 321 318 315 317 323 327 325 325 325 321 321 315 313 319 318 315 319 320 321 315 315 322 318 313 312 312 314 315 315 315 315 315
311 310 312 312 310 311 310 308 307 307 308 309 308 308 309 309 308 309 311 309 309 311 309 308 309 311 313 313 313 312 313 314 314 315 314 314 314 313 315 315 316 317 310 311 318 314 312 317 317 317 322 321 319 319 315 318 323 317 311 315 321 323 326 330 331 328 320 312 318 325 314 312 322 323 321 314 314 319 318 316 314 311 313 315 315 316 315 315
314 312 312 312 310 311 312 310 307 307 309 309 308 308 309 309 308 309 312 309 308 309 308 309 310 311 313 313 312 311 312 313 314 314 313 314 314 313 315 313 312 317 311 311 321 315 311 314 313 316 321 319 318 315 312 320 324 313 307 313 317 318 323 326 327 327 319 315 324 323 311 312 320 327 327 315 311 318 317 315 313 310 313 314 314 315 315 315
315 314 314 313 311 312 313 310 308 309 310 309 308 309 309 309 309 308 309 310 311 309 306 308 310 311 313 312 311 311 312 313 313 314 313 313 313 311 314 312 310 318 318 317 322 316 310 310 310 312 315 314 313 310 308 314 313 308 313 318 317 321 325 324 324 322 316 322 327 317 311 313 313 323 328 315 311 315 316 316 313 311 313 314 314 315 315 315
313 315 317 315 311 311 312 309 309 311 310 309 309 309 309 310 311 309 308 311 314 310 306 308 309 311 313 313 313 312 313 313 311 313 314 313 313 312 312 313 314 320 322 321 321 315 312 313 312 311 310 309 313 314 309 307 307 311 323 323 317 322 325 325 327 318 315 327 323 312 311 313 312 320 321 314 315 315 313 315 315 313 314 313 314 315 314 315
314 314 316 314 311 311 311 309 309 311 310 310 310 309 309 310 310 309 308 310 313 311 310 310 309 311 314 314 315 314 315 315 311 313 316 315 314 314 314 316 319 320 318 319 320 317 316 317 313 310 310 310 317 320 313 311 314 316 321 322 320 321 319 323 329 320 318 323 314 309 311 311 313 318 316 315 319 315 309 309 312 312 312 313 314 314 314 314
315 315 314 313 312 312 311 310 309 310 310 310 309 309 312 312 309 310 310 310 311 310 311 313 311 312 313 313 315 314 314 315 312 312 314 315 315 314 314 316 318 321 320 320 320 318 320 320 315 313 313 311 315 320 317 316 318 316 316 320 322 321 316 319 322 315 315 318 311 308 311 313 316 315 315 317 313 310 307 306 310 311 311 313 313 313 314 314
315 316 315 313 313 313 313 311 309 310 310 310 309 310 312 312 310 312 311 309 311 310 311 313 312 311 312 313 314 314 314 313 312 314 314 314 315 315 316 314 314 321 323 320 320 319 320 321 318 317 314 313 314 316 318 320 317 314 315 316 318 324 324 320 320 319 320 319 312 308 312 320 319 311 313 313 307 307 308 308 310 311 312 313 312 314 314 314
313 315 315 314 313 313 313 312 309 309 310 309 309 310 310 310 312 314 310 310 313 313 311 311 311 312 312 312 312 312 314 315 313 314 315 315 315 315 316 313 313 320 322 317 317 318 318 318 317 313 309 312 315 313 314 318 317 314 312 313 314 321 323 316 313 318 319 316 314 311 315 323 318 310 311 307 304 307 307 307 310 311 312 313 313 314 314 314
311 312 314 315 316 314 313 314 311 310 310 309 309 310 309 311 315 315 310 311 314 312 310 311 312 313 312 311 313 311 312 315 314 314 315 315 315 314 314 314 312 315 317 317 318 317 316 315 314 312 310 310 312 310 309 313 316 314 312 316 317 315 320 316 307 308 311 312 314 313 316 322 316 312 315 309 308 310 307 306 308 310 313 313 313 314 313 314
311 311 312 313 316 316 314 315 314 311 309 309 309 310 310 310 313 316 313 310 311 310 311 313 311 313 312 311 314 313 312 315 314 314 315 314 315 315 314 314 312 312 314 316 318 319 319 316 313 314 315 310 308 308 307 307 312 317 317 317 312 309 316 318 312 314 314 314 317 314 313 319 317 316 319 313 310 312 311 308 307 310 313 313 313 313 313 314
310 311 311 311 315 317 315 315 315 312 310 311 310 311 314 313 309 312 313 308 309 312 313 314 312 312 312 312 313 312 313 315 314 314 315 313 314 315 314 314 312 311 310 310 313 317 320 319 312 311 315 312 309 312 312 309 308 314 317 312 312 315 318 315 313 319 317 313 319 318 311 311 313 319 323 314 312 314 313 312 310 310 312 312 313 313 313 314
309 310 311 311 313 316 316 316 316 314 312 311 311 310 315 315 309 309 310 307 311 314 313 315 313 311 311 312 312 312 312 314 314 314 315 313 314 313 312 313 313 310 307 309 313 313 317 320 314 310 311 313 313 315 317 316 310 309 310 308 314 323 321 315 313 316 315 312 317 319 316 315 316 318 320 314 313 313 312 315 314 310 312 313 313 313 313 314
308 309 309 310 312 314 315 316 315 315 313 312 311 310 311 313 311 309 309 309 312 312 312 316 314 312 312 312 311 311 312 314 314 314 314 313 313 312 311 312 313 310 307 307 312 313 314 316 313 311 311 313 317 317 315 316 313 311 312 311 314 316 314 314 313 313 316 317 319 317 318 325 321 313 314 313 311 310 311 314 312 309 312 313 312 313 313 313
307 308 308 309 311 312 313 314 313 313 313 312 312 313 311 312 311 311 309 310 311 311 312 316 315 314 315 312 311 311 313 315 313 313 314 312 311 312 311 310 311 311 309 308 312 315 313 313 315 315 314 315 318 314 311 314 313 312 314 313 314 314 314 316 314 311 312 315 319 316 314 323 320 308 310 313 308 307 309 310 309 309 312 312 312 313 313 313
305 306 307 308 309 310 311 313 311 311 313 312 312 312 312 311 311 312 310 310 312 312 311 315 318 318 316 312 311 312 313 314 313 314 315 313 312 313 310 309 310 310 311 312 314 313 311 316 321 318 317 316 314 308 304 308 312 312 313 314 315 314 315 319 318 315 311 309 313 313 312 323 323 306 304 307 304 305 308 308 310 311 311 312 312 312 313 313
304 306 307 307 307 308 311 311 310 310 311 311 310 310 310 310 310 312 312 311 313 313 313 316 317 315 314 313 312 312 312 313 313 313 315 313 312 311 309 308 310 310 311 314 314 310 310 317 319 317 318 318 314 309 305 307 311 313 315 315 315 314 317 322 322 318 314 312 313 312 311 324 325 305 299 301 301 304 309 310 311 311 311 312 312 312 313 313
303 305 308 308 306 307 309 309 310 310 309 309 310 311 310 310 310 312 314 313 313 314 316 317 313 310 314 315 313 313 312 312 312 312 314 314 310 309 308 308 310 311 311 312 313 310 311 316 316 315 319 319 317 316 313 312 313 315 317 316 314 316 316 316 315 312 313 316 317 315 315 324 325 309 302 303 303 304 307 309 311 311 311 311 312 313 313 312
304 305 307 308 307 307 307 307 308 309 309 309 311 312 311 310 310 311 313 312 311 312 315 315 311 312 315 315 313 313 312 312 314 312 313 314 310 308 308 308 308 309 310 311 311 310 313 317 315 314 315 314 315 316 316 315 313 314 317 315 313 315 314 313 315 314 314 317 315 315 318 320 317 311 308 308 308 308 308 309 310 310 310 312 312 312 312 312
303 305 306 307 308 307 307 307 307 307 308 310 311 311 312 312 311 310 311 312 311 311 312 311 310 312 315 314 314 314 311 312 315 313 313 315 313 311 309 308 307 307 309 310 309 312 318 317 313 313 313 312 314 317 317 317 316 314 316 315 313 314 314 316 320 317 315 316 313 314 317 315 312 311 311 311 312 313 309 307 309 309 310 312 311 311 312 311
301 303 304 306 307 306 305 306 307 307 308 310 311 311 311 312 312 312 311 311 311 312 312 311 311 314 316 315 316 315 312 313 314 313 313 315 314 311 309 308 308 307 309 309 307 313 320 316 312 313 313 312 315 319 317 317 317 316 316 316 314 314 314 315 316 314 315 315 313 313 314 314 313 313 313 313 313 313 309 306 309 310 310 311 311 311 311 311
300 301 302 303 305 305 305 306 307 307 308 309 310 311 311 311 312 314 313 311 311 312 313 313 313 315 317 316 317 316 314 314 314 313 314 314 314 314 312 310 309 308 310 309 307 313 318 315 313 313 312 312 316 319 316 316 317 316 315 316 315 313 314 314 314 313 315 314 312 313 314 313 313 314 314 312 310 310 309 308 309 311 310 311 311 312 312 312
299 299 300 301 302 302 303 306 307 307 309 309 310 310 311 311 311 313 314 313 313 312 312 315 316 316 318 317 317 317 315 314 315 315 314 314 315 315 315 314 310 308 310 311 309 310 314 317 316 312 310 312 315 316 315 315 315 315 314 315 314 313 313 313 313 313 313 313 313 316 317 315 313 314 313 309 307 308 309 310 311 311 311 312 312 312 313 312
299 299 299 300 300 300 302 306 307 307 308 309 309 310 310 310 311 312 313 313 315 314 312 314 316 315 316 316 317 318 317 316 318 318 315 315 316 316 317 317 313 310 311 313 312 309 310 316 317 312 310 313 314 314 313 312 314 315 315 313 312 312 312 312 313 313 312 313 313 314 317 316 312 311 309 307 308 310 310 311 312 311 311 312 312 312 312 312
298 299 299 300 301 301 302 304 306 308 308 308 309 309 310 310 311 312 312 311 313 315 313 313 315 314 313 314 316 317 315 315 318 317 314 315 316 315 315 314 313 314 314 314 314 313 311 314 316 313 313 315 312 312 313 311 311 314 315 314 312 312 312 312 312 313 313 313 314 314 314 314 311 309 308 307 308 309 310 311 312 311 312 312 311 311 311 311
298 299 299 300 301 301 301 303 305 307 308 308 308 308 308 309 310 310 312 311 311 313 313 312 314 315 314 314 315 314 312 312 313 313 312 312 312 311 312 311 311 315 317 315 316 315 315 318 318 315 316 315 310 311 315 314 313 314 314 313 312 310 311 311 311 312 312 313 314 314 312 314 312 309 311 312 309 308 310 311 311 311 311 310 310 310 310 309
Wind_Speed
24 24 23 23 22 19 20 24 25 26 27 27 28 27 26 25 25 24 23 24 24 24 23 22 20 18 16 16 18 17 15 14 14 15 16 16 14 13 15 16 16 16 14 12 11 11 11 10 10 10 10 9 7 8 8 4 4 3 3 3 1 3 3 5 7 7 4 2 6 10 14 9 4 8 9 6 5 6 10 10 8 11 13 9 7 5 11 21
24 24 22 21 23 19 19 24 24 26 28 28 28 27 27 26 25 25 25 25 24 23 22 21 19 16 16 17 17 15 13 12 12 16 16 14 14 15 16 16 16 15 13 12 11 11 11 11 11 11 10 9 6 7 8 4 4 3 3 3 2 5 4 5 8 9 3 0 7 10 13 10 6 10 11 5 3 6 8 8 8 10 12 10 9 9 12 19
23 22 22 21 22 19 19 23 24 26 28 28 28 27 27 27 26 26 26 26 24 23 22 20 17 16 17 17 15 13 11 9 12 16 15 14 15 16 17 16 14 14 13 12 12 11 10 11 12 12 11 8 6 7 7 4 4 2 3 2 5 6 3 3 5 7 5 1 6 9 9 8 8 11 11 5 3 4 7 10 10 11 12 11 10 10 13 19
21 20 21 22 21 18 19 23 24 26 27 27 28 27 28 27 27 27 26 25 23 22 21 18 17 18 18 17 14 11 8 4 10 16 14 15 17 18 17 15 13 13 14 13 12 11 10 10 12 12 10 6 5 7 5 4 4 2 4 3 5 5 1 2 2 3 6 3 6 9 6 6 8 11 10 7 5 3 10 15 15 13 12 11 12 11 13 19
21 19 20 21 20 18 20 23 24 27 27 28 28 28 28 27 26 25 25 24 23 22 20 17 17 19 18 16 13 10 8 2 7 14 14 18 19 17 17 15 13 13 14 14 13 13 11 11 12 12 7 3 4 5 3 3 5 3 1 2 3 5 2 1 1 1 5 6 7 9 6 6 8 9 10 11 7 5 10 14 15 14 11 10 12 12 15 19
20 19 19 20 20 19 21 23 24 26 27 27 28 28 27 26 25 24 24 24 22 20 18 18 18 19 18 16 12 12 12 2 3 14 16 19 20 17 17 15 13 14 15 15 15 14 12 12 13 11 6 3 3 3 3 5 5 3 1 1 4 3 1 1 0 2 5 9 12 10 7 7 8 6 8 13 14 10 6 6 10 13 12 11 12 13 16 18
20 20 19 19 20 19 21 23 24 25 26 27 27 26 25 24 24 24 24 23 21 19 18 19 19 19 19 16 12 14 16 6 2 15 18 19 20 18 17 15 15 15 15 17 16 15 13 14 14 10 6 4 3 3 4 6 3 3 1 1 4 2 1 2 1 4 6 8 11 10 7 6 7 5 5 13 20 16 9 6 6 10 15 14 13 15 16 16
21 21 20 20 21 21 22 24 24 25 26 26 26 26 25 24 24 24 23 21 20 19 19 19 19 20 19 16 13 12 17 12 5 16 19 19 19 17 16 15 16 15 16 17 15 14 13 14 16 11 5 2 5 5 6 6 1 2 3 3 5 3 2 4 3 4 5 5 7 7 5 4 6 4 4 13 18 16 16 13 8 8 14 16 15 15 16 17
22 21 21 21 22 22 23 24 24 25 25 26 26 26 25 24 24 23 21 20 19 19 19 19 19 20 18 15 12 7 13 13 7 15 20 18 17 17 16 16 17 16 16 17 15 14 11 14 18 11 4 4 7 6 7 6 1 2 5 5 5 4 3 4 4 5 5 5 5 5 2 1 3 3 8 14 15 14 16 16 13 9 12 17 16 16 17 18
22 21 21 21 22 22 23 25 24 24 25 25 26 25 25 24 23 22 21 19 19 19 19 19 18 19 18 15 11 5 11 13 8 14 20 17 16 16 17 17 17 15 15 17 14 13 11 13 17 11 4 7 8 6 6 4 2 6 11 9 6 5 4 3 3 5 5 5 3 4 2 2 2 1 6 8 7 11 15 15 15 12 10 14 17 17 17 18
20 20 20 21 21 22 23 24 24 24 24 25 26 25 24 23 22 21 20 19 19 19 19 19 18 18 17 15 12 6 10 12 8 14 19 16 16 15 16 17 15 14 14 16 14 13 11 11 16 11 3 6 9 5 4 4 5 11 15 9 6 5 4 4 3 3 3 4 1 2 2 3 1 2 8 7 4 6 12 15 16 15 12 12 15 16 17 18
19 20 21 22 22 23 24 24 24 24 24 25 26 25 24 22 21 20 20 19 19 19 19 18 16 17 16 15 16 11 9 10 8 14 18 16 16 16 16 16 15 14 13 13 13 13 11 11 14 10 4 10 9 4 5 7 9 10 9 4 5 6 4 4 3 1 1 2 1 3 0 5 3 7 9 7 5 5 8 14 16 17 15 13 15 16 17 17
20 21 22 23 23 24 25 25 24 24 24 25 25 25 24 22 21 20 20 19 19 18 18 17 15 16 14 11 14 13 9 9 9 14 18 16 16 16 15 15 14 13 12 12 12 13 11 11 12 10 9 11 6 5 8 8 9 6 4 4 2 6 4 4 4 1 1 1 1 3 1 6 7 10 9 6 7 6 7 12 15 17 17 17 17 17 18 18
21 22 23 24 24 25 26 26 25 24 23 24 24 24 24 23 22 20 19 18 18 17 16 16 14 15 14 8 9 12 10 9 11 14 17 17 16 16 14 14 13 12 12 12 12 13 12 10 11 10 10 10 9 12 8 5 5 3 2 3 2 1 3 5 4 1 3 0 1 4 1 6 8 7 6 8 10 9 10 11 12 15 17 18 19 19 20 19
20 21 23 25 25 25 26 26 25 24 23 23 22 22 22 22 21 20 19 17 16 16 15 15 15 14 11 7 7 12 11 10 12 14 16 16 16 16 14 13 13 12 12 13 13 12 11 10 10 9 9 11 14 11 4 4 4 3 2 1 3 2 5 7 3 1 3 1 2 5 1 6 8 6 2 2 4 6 11 12 12 15 17 19 20 21 22 21
17 20 22 24 25 25 25 26 25 24 24 22 21 20 20 20 20 19 17 16 15 16 15 14 16 13 6 5 7 11 12 11 13 14 15 16 15 15 14 13 13 12 11 12 13 12 11 10 10 10 10 10 9 6 4 4 4 4 3 3 1 2 3 4 2 3 2 2 3 3 2 4 4 4 3 2 4 5 6 8 9 12 14 17 19 21 22 22
16 19 21 23 25 26 26 25 25 25 24 22 21 19 18 19 18 17 16 16 15 14 14 13 15 11 5 6 7 10 14 13 14 15 14 15 14 14 15 15 14 12 12 13 13 12 11 10 9 7 5 5 3 5 5 1 3 3 3 2 3 3 2 2 2 4 4 2 1 3 1 6 6 8 9 8 9 11 12 13 12 10 11 13 15 19 20 21
15 18 21 23 25 26 26 25 25 25 23 22 19 17 17 17 16 16 15 16 16 14 12 11 13 8 7 10 8 11 16 14 15 16 15 15 14 14 15 15 14 13 13 12 10 10 9 6 6 3 3 4 2 5 5 5 5 4 2 3 2 2 3 3 3 3 4 3 2 1 3 9 11 13 19 18 12 12 15 17 17 16 16 15 15 17 18 20
16 17 19 23 24 26 26 26 26 25 24 22 20 19 18 16 15 15 16 19 17 10 5 12 17 5 3 12 12 12 16 15 16 17 16 16 14 15 15 14 15 16 14 9 5 6 6 4 5 4 2 3 6 6 7 8 8 8 6 5 4 3 4 5 4 4 2 3 2 4 5 9 10 11 18 21 13 10 16 18 20 20 19 20 20 21 21 22
17 15 17 21 23 26 26 26 25 25 26 24 24 22 18 17 12 9 17 21 16 7 1 12 22 4 5 12 17 14 16 16 16 18 17 16 17 17 15 15 15 12 8 5 4 3 5 4 3 5 7 8 7 6 7 6 7 7 6 4 3 3 2 3 3 5 2 3 3 3 4 8 11 10 16 23 17 13 19 21 23 23 22 24 24 25 26 26
18 15 16 20 23 26 26 27 25 26 27 25 28 23 16 19 11 7 17 15 11 8 2 9 24 9 4 11 18 16 17 15 15 19 17 17 19 16 13 13 10 5 2 3 5 3 4 5 7 7 7 7 7 7 8 7 7 6 6 5 1 1 2 2 2 4 4 1 2 2 4 9 11 10 16 21 14 12 19 20 22 24 25 26 26 28 29 29
21 18 18 20 24 26 26 27 26 28 28 28 32 21 15 22 13 13 20 9 7 9 2 8 22 12 2 9 17 17 16 10 11 17 17 19 20 13 9 9 6 4 1 3 6 3 3 4 7 6 7 8 7 5 8 8 7 6 4 5 2 2 2 3 3 5 5 1 3 4 5 9 11 10 15 16 12 16 20 18 21 23 24 25 25 26 26 27
23 21 20 22 25 26 27 28 27 30 29 30 31 19 16 21 11 15 19 7 6 8 2 8 18 13 5 10 16 16 14 8 9 16 18 20 18 11 10 8 5 5 3 4 7 5 4 5 6 9 10 10 6 4 8 8 5 4 4 5 3 2 1 1 2 5 4 2 1 3 4 8 7 7 9 9 10 14 15 15 17 18 20 21 19 20 20 19
23 22 22 24 27 27 27 27 28 30 29 30 27 17 19 20 12 18 15 5 3 4 3 8 13 13 9 11 16 13 11 9 10 17 19 19 17 11 9 8 6 5 4 6 8 7 4 4 4 10 6 8 7 3 6 7 3 1 3 6 4 3 4 2 1 2 3 3 3 3 4 6 5 6 7 4 4 9 9 9 10 9 11 14 15 15 14 13
21 23 24 25 27 27 26 26 28 30 29 29 24 17 21 19 15 19 11 5 2 1 2 7 8 10 10 12 15 12 9 8 10 18 20 19 17 11 7 7 6 4 3 5 8 5 3 1 7 9 4 6 8 3 4 6 3 1 3 6 6 7 6 2 2 3 4 4 4 5 4 5 5 5 7 4 7 10 9 9 10 10 8 8 11 11 10 10
19 22 24 25 26 26 24 23 27 30 30 29 22 17 20 20 19 18 8 5 0 1 3 7 6 9 11 11 14 13 7 4 9 18 21 18 17 11 7 4 3 2 5 5 5 2 1 2 5 7 6 6 7 4 5 5 6 1 4 5 7 7 8 6 4 4 2 1 3 4 3 4 7 6 7 6 8 10 9 10 12 14 13 10 9 6 3 1
17 20 22 22 24 25 21 21 28 31 28 27 22 17 18 21 21 16 6 5 2 3 6 6 6 11 12 12 17 12 4 5 9 14 19 17 14 11 8 3 3 3 4 4 3 1 2 4 4 5 7 6 6 4 5 6 8 3 3 6 8 8 8 6 6 4 2 2 4 4 4 2 5 6 7 6 7 9 9 8 11 14 15 16 16 14 13 13
14 19 21 20 22 23 19 20 29 31 26 25 23 18 18 22 20 11 5 2 2 4 5 5 6 10 13 16 18 9 5 11 9 9 16 16 12 8 5 5 5 4 2 4 4 2 2 5 5 5 5 4 4 4 5 9 6 3 3 7 7 7 7 5 6 4 1 1 3 5 3 1 5 7 6 6 5 7 7 6 8 12 14 16 18 18 18 17
14 15 18 18 19 19 14 18 29 30 24 24 23 19 19 23 17 6 4 1 2 3 3 7 8 9 12 14 11 5 7 8 4 8 15 14 10 6 3 6 10 8 4 4 5 2 2 2 5 6 5 4 3 1 2 5 3 4 6 7 7 6 6 5 5 4 3 3 4 5 3 1 5 7 5 3 2 5 5 5 7 9 13 16 18 18 17 17
18 17 17 17 19 18 14 19 29 27 22 24 22 20 23 21 11 5 2 3 2 2 2 6 7 7 12 9 2 1 4 2 4 12 12 8 7 6 8 9 10 8 5 7 4 1 1 1 1 3 3 5 5 4 4 3 6 10 7 7 7 6 5 4 3 4 4 2 5 5 3 0 2 6 4 1 2 5 4 1 6 9 14 17 18 18 19 19
19 19 18 17 19 18 16 23 30 24 22 23 22 24 23 12 3 3 5 3 3 2 2 3 3 6 12 9 3 1 2 2 4 11 8 4 5 6 8 7 5 5 3 4 3 4 4 3 1 1 3 6 8 6 6 5 7 7 5 5 5 4 4 4 5 4 2 4 6 4 3 1 2 5 3 3 5 5 6 3 4 9 13 16 17 19 22 24
20 20 17 16 17 16 16 24 29 24 22 24 25 26 17 5 1 4 4 3 3 3 4 4 3 5 9 6 4 3 3 2 2 6 5 3 4 4 4 4 4 4 1 3 1 3 2 1 2 1 2 5 6 6 5 4 4 5 5 6 5 2 3 3 3 1 2 5 4 3 2 2 5 7 6 8 8 6 8 6 2 7 10 12 14 19 23 26
22 22 18 16 16 15 15 22 28 25 22 25 26 18 8 3 6 5 3 3 2 1 4 5 2 5 9 6 4 3 3 2 3 2 2 3 4 3 2 1 5 5 3 5 4 2 0 4 2 2 2 5 5 6 4 1 0 4 5 5 4 3 2 2 4 2 3 4 3 3 2 2 4 6 8 11 9 7 9 7 5 5 5 8 11 17 22 25
20 21 19 17 16 16 15 19 26 25 23 25 21 9 5 5 6 3 4 4 1 2 2 4 6 7 7 5 4 5 3 1 3 3 2 3 5 5 4 3 3 5 4 4 3 5 4 3 3 3 2 5 4 4 6 5 4 3 3 5 5 5 5 4 4 3 3 3 3 4 2 3 2 2 6 8 8 8 8 7 7 4 1 5 10 17 20 23
16 18 18 17 16 16 15 18 23 24 24 22 12 5 7 8 3 3 6 5 1 2 3 3 8 8 3 2 1 4 2 1 3 4 3 5 5 7 6 5 5 4 6 5 2 3 4 3 4 2 0 5 4 2 4 7 3 1 2 5 2 4 5 3 3 5 3 0 2 2 3 4 3 4 5 4 7 7 3 4 7 5 5 10 14 17 20 22
14 16 16 16 17 16 16 19 21 22 25 18 7 6 8 4 3 4 5 5 4 6 7 4 4 5 3 1 1 4 0 2 4 3 3 3 3 5 5 4 6 5 5 6 3 2 3 2 4 4 2 3 2 1 2 3 3 2 2 3 4 4 7 6 2 1 3 1 3 1 3 5 3 4 5 4 1 3 4 3 7 10 11 14 16 18 20 22
13 14 15 15 16 17 17 18 18 21 23 14 6 7 3 1 3 4 3 5 7 9 10 5 2 4 6 4 5 7 2 2 4 3 3 2 2 5 6 4 6 8 6 4 2 3 5 2 4 2 3 2 2 5 6 5 3 4 3 5 4 3 5 5 2 3 4 2 4 1 3 4 1 2 5 5 4 2 2 6 10 14 15 16 17 19 21 22
12 12 14 14 14 15 18 18 16 19 18 8 6 6 1 1 2 1 2 5 8 7 6 5 3 3 6 6 6 7 5 4 5 4 4 3 4 6 8 5 5 10 9 3 2 2 5 3 3 2 2 2 3 5 4 5 5 4 5 4 4 3 2 2 2 2 1 2 4 4 3 3 3 4 4 1 8 7 4 6 9 12 16 16 17 19 20 19
11 11 10 13 13 15 19 18 17 17 12 5 7 5 0 1 1 1 1 3 5 5 4 5 2 1 5 6 5 6 6 6 7 5 4 4 4 5 9 6 3 8 11 4 2 2 4 4 2 2 1 1 3 1 4 1 4 5 4 3 2 3 4 2 2 4 3 2 2 4 3 3 6 6 6 7 9 8 8 8 8 12 17 18 19 19 18 17
10 8 5 10 13 13 17 19 17 13 7 4 6 3 0 1 0 0 2 2 2 3 3 4 3 3 4 3 3 5 4 4 7 5 3 5 5 4 6 7 4 7 8 4 3 3 2 3 3 1 3 1 1 3 6 7 3 3 4 3 1 2 3 2 1 2 4 4 3 2 3 5 6 4 6 7 7 8 10 9 9 14 18 18 18 17 15 16
8 5 2 10 12 11 16 16 10 6 3 1 2 2 0 1 1 1 2 2 2 2 2 4 4 5 5 4 3 5 4 4 6 5 2 5 6 3 6 9 8 9 6 4 3 3 2 3 4 2 0 3 3 3 3 5 5 5 5 6 6 4 4 3 2 1 2 3 4 3 3 7 6 3 5 6 6 8 11 13 13 15 17 17 16 15 14 14
9 2 3 11 12 11 14 9 2 2 2 2 3 3 2 2 2 1 1 2 3 2 2 4 3 3 4 4 3 5 6 4 5 6 4 6 6 4 6 10 14 16 10 3 2 3 3 4 4 2 3 5 3 3 1 2 2 3 3 4 6 4 5 6 5 3 2 1 2 3 1 7 6 3 4 6 7 10 12 16 17 15 16 15 13 12 12 11
9 1 4 13 14 12 10 3 0 2 1 1 3 3 3 3 2 1 0 1 2 2 2 2 1 2 2 3 4 6 7 5 5 6 3 3 5 4 6 13 18 16 10 4 3 4 3 4 3 0 3 3 4 4 2 2 2 2 2 2 5 3 3 5 5 4 4 3 3 3 2 6 6 2 2 6 9 12 11 13 15 14 14 13 9 9 9 8
9 3 4 12 17 15 8 1 2 4 2 2 3 2 1 2 2 2 1 1 1 2 2 1 0 1 2 3 4 7 8 5 5 6 3 3 4 3 7 15 17 12 8 6 7 8 5 2 4 3 2 3 4 4 3 2 1 3 3 2 4 4 6 4 2 4 2 5 7 5 4 6 6 4 4 4 9 10 8 10 11 11 13 10 5 6 6 5
9 4 2 7 15 18 9 1 2 3 3 4 3 2 2 1 1 3 2 1 2 2 3 1 1 3 2 2 4 3 5 3 2 4 3 2 2 0 4 13 15 10 5 5 10 14 7 2 5 6 5 6 5 4 4 4 3 2 2 4 5 6 8 5 3 4 3 5 6 6 5 5 5 4 4 5 7 7 7 7 7 9 11 5 2 3 4 4
6 2 2 4 9 12 8 4 5 4 4 5 3 3 4 2 1 3 4 2 1 2 3 1 2 4 3 3 4 3 5 1 2 3 3 3 3 2 1 6 11 9 3 5 15 14 4 1 6 8 10 11 8 5 4 7 6 4 4 7 7 7 9 6 5 4 5 3 4 7 6 4 4 3 3 6 6 6 7 8 8 9 7 2 1 1 2 3
2 1 3 3 3 4 3 5 8 4 4 6 4 3 6 5 1 2 4 3 3 4 2 3 1 3 2 5 4 3 4 2 2 3 3 3 2 2 3 2 6 7 3 7 14 10 4 3 7 7 10 8 5 5 5 7 9 10 9 10 9 9 10 9 8 10 6 5 6 9 7 6 7 7 8 9 7 6 9 11 11 9 6 5 3 2 2 2
2 1 3 3 3 2 1 4 9 6 5 6 3 2 7 7 5 4 4 1 1 5 3 2 1 3 5 6 5 3 4 3 1 2 2 2 1 2 3 4 2 3 4 5 7 6 4 5 6 5 8 6 3 4 6 7 8 9 11 13 12 12 12 13 15 14 9 7 12 7 11 11 9 8 11 11 11 12 13 12 9 6 6 6 2 2 4 5
2 2 2 3 2 1 1 4 10 8 6 6 3 2 6 8 8 6 2 2 1 3 5 3 3 4 5 4 4 4 5 4 3 3 2 3 2 2 2 2 1 2 4 4 3 3 3 3 3 6 7 7 2 3 5 7 6 5 9 13 13 14 16 17 19 17 12 12 10 6 10 13 8 9 12 11 13 16 13 9 6 3 3 2 4 7 9 10
2 1 2 4 3 3 2 5 8 6 4 6 5 3 5 8 9 5 2 4 4 3 4 5 4 4 5 4 4 4 5 6 5 4 5 4 2 2 3 3 3 2 3 3 2 3 3 3 2 5 4 5 1 2 2 3 5 5 7 8 10 13 15 16 17 13 9 11 8 4 5 10 5 11 12 9 12 13 9 8 8 6 4 4 5 6 7 8
4 3 4 4 2 2 2 2 4 4 3 5 5 3 5 9 9 6 2 3 6 6 6 7 5 4 2 3 4 4 6 7 6 6 9 7 5 4 2 3 6 4 3 2 2 2 4 2 2 5 4 5 1 5 4 3 3 2 5 8 12 13 12 13 12 8 8 11 11 7 9 10 6 12 11 8 10 11 12 12 8 5 6 6 6 7 8 8
7 4 4 3 1 0 1 1 2 4 3 4 4 3 3 5 6 6 3 2 4 8 10 11 8 4 2 5 7 9 10 8 7 8 10 7 6 6 5 5 7 5 3 3 2 1 4 4 2 4 5 4 3 4 7 7 4 4 8 11 15 13 11 9 7 8 12 12 10 10 10 6 5 10 9 6 8 12 14 13 10 9 9 8 9 10 9 8
Wind_Direction
203 206 200 191 186 186 188 187 186 187 187 188 189 191 192 192 193 195 197 197 195 192 189 191 194 196 200 210 216 218 220 224 225 225 224 216 209 200 186 183 182 182 184 189 193 193 183 172 171 173 173 162 152 161 151 139 142 110 95 91 121 169 198 184 178 191 163 215 209 183 183 178 193 186 173 165 159 173 178 186 195 202 214 232 238 229 192 189
206 208 202 195 189 187 187 186 186 187 187 189 190 191 192 192 194 194 194 192 189 188 189 192 194 197 204 210 211 214 221 224 229 228 222 211 202 193 182 176 178 185 187 189 193 189 182 174 171 171 167 154 139 156 159 152 136 105 101 105 209 201 203 185 175 188 167 260 191 179 187 191 198 183 174 177 174 168 178 201 211 215 220 227 224 215 199 191
209 212 208 201 192 188 187 185 185 186 186 189 189 190 191 191 191 189 188 186 186 187 190 192 193 202 207 205 206 213 218 223 237 229 212 203 198 186 180 177 175 184 187 189 188 182 179 175 171 169 161 146 136 155 157 144 145 109 104 115 240 216 210 204 182 190 199 216 173 175 189 199 199 180 180 189 164 173 200 206 210 219 219 217 214 214 203 193
209 211 210 201 192 188 187 184 183 184 185 187 187 187 187 187 185 183 183 183 185 188 190 191 195 205 203 199 204 209 202 213 244 229 207 197 192 183 184 183 178 183 185 182 179 174 172 172 170 166 154 129 124 150 156 145 165 152 126 171 230 193 156 215 196 194 202 198 177 177 175 196 193 180 187 172 136 249 235 215 215 221 217 211 210 212 202 195
205 203 204 200 191 187 186 183 183 184 184 184 184 184 183 181 179 179 182 184 186 188 188 191 199 203 197 196 203 193 165 121 242 221 205 194 185 183 188 188 187 182 178 175 171 167 166 169 166 160 145 113 116 134 158 146 143 137 147 221 184 146 114 204 192 167 188 179 170 167 166 192 185 186 198 177 166 235 239 227 227 228 223 219 219 213 201 199
203 197 199 199 189 185 186 184 185 185 183 183 182 182 180 177 177 179 183 186 187 187 187 194 199 197 193 196 198 180 170 132 226 198 194 188 182 184 186 189 190 176 172 170 165 164 163 165 162 157 131 95 127 120 150 159 145 149 290 247 157 149 72 81 74 147 159 162 166 169 185 195 181 199 213 201 214 230 241 246 237 231 224 225 226 214 207 206
202 196 198 197 190 185 185 186 186 185 184 183 181 181 179 176 177 181 184 185 187 188 189 195 195 193 193 194 194 187 198 242 226 184 186 183 182 184 183 189 185 172 170 167 164 164 163 166 164 155 121 87 152 126 131 157 146 129 157 195 155 154 34 53 57 148 148 163 174 176 184 198 194 206 224 223 232 235 238 262 264 234 220 220 222 218 220 220
204 199 198 194 191 187 185 188 187 186 185 183 181 180 177 175 179 183 184 185 189 191 193 193 190 191 192 192 193 195 216 242 219 181 181 179 183 185 184 186 179 172 171 169 166 164 164 170 166 155 129 110 165 150 133 140 52 83 152 177 137 114 104 75 69 133 142 156 171 173 175 217 219 224 253 242 242 238 236 247 271 247 217 217 219 220 223 224
206 202 198 192 190 187 187 190 189 187 186 184 182 180 176 174 180 184 185 187 191 193 194 192 191 190 190 192 192 201 220 223 203 181 179 178 182 185 186 183 176 173 172 172 170 168 169 172 170 164 159 164 149 146 146 143 265 170 144 150 129 94 95 101 94 111 125 137 153 171 175 262 218 255 269 255 253 244 239 240 247 248 223 217 217 219 221 223
206 201 197 192 189 187 189 191 191 190 186 185 184 180 176 175 181 185 186 190 193 195 194 192 192 190 188 189 187 202 214 207 199 186 182 182 184 184 184 180 175 174 176 176 174 174 173 174 177 167 149 159 140 136 154 150 207 151 126 111 95 78 77 86 113 103 110 120 128 179 212 283 177 228 260 261 266 240 236 235 234 238 232 220 218 219 221 225
202 198 194 189 188 188 190 193 194 192 189 187 185 182 178 177 183 187 189 192 194 195 194 192 192 190 187 188 191 203 203 199 198 188 186 187 184 180 179 178 176 177 180 181 180 179 176 176 177 171 150 161 143 120 138 137 137 134 125 101 44 51 70 40 88 98 96 108 75 152 196 293 110 193 244 254 290 245 230 230 229 232 235 227 220 220 221 227
197 194 191 188 187 187 189 194 196 194 192 189 186 184 179 180 187 190 191 193 194 194 194 192 190 189 187 194 206 211 201 200 196 186 187 187 182 176 175 177 178 179 182 183 181 177 177 177 178 183 164 153 147 111 129 134 127 123 119 113 359 14 35 5 25 40 72 101 78 109 46 295 236 226 244 248 255 253 233 229 230 232 234 231 224 224 225 230
196 191 190 188 187 188 189 194 195 195 196 193 188 185 181 183 189 191 192 192 194 194 193 191 188 187 188 201 214 213 209 208 196 184 183 183 182 176 174 176 178 178 178 180 177 172 173 176 183 184 153 147 143 123 132 118 117 112 76 109 23 11 0 335 357 353 130 92 96 124 251 281 257 241 239 243 237 240 240 229 230 232 235 235 232 232 233 234
197 192 190 189 189 188 189 193 194 194 197 196 192 188 184 185 190 191 191 191 193 193 191 190 186 185 193 210 216 209 210 205 191 181 179 181 181 178 175 173 173 174 174 173 171 166 163 169 178 166 142 142 130 121 113 58 79 96 56 63 49 115 262 309 344 118 141 129 77 117 195 263 273 267 235 244 247 244 245 234 232 234 235 238 238 239 241 240
199 194 191 189 190 189 189 191 192 193 195 196 193 190 186 185 188 188 188 190 191 192 190 187 183 183 199 225 214 200 198 192 185 179 178 181 181 179 175 167 164 165 169 170 171 167 157 161 165 141 121 131 128 116 60 17 35 42 97 324 354 162 258 311 346 59 142 173 59 105 211 268 272 274 188 232 268 257 252 248 247 246 242 242 243 244 247 247
202 196 193 190 189 189 189 189 189 190 191 192 192 189 187 186 185 184 186 188 187 188 186 184 183 181 195 220 205 196 191 186 181 178 179 181 180 178 170 162 158 157 163 168 171 170 161 153 138 118 116 129 126 101 57 36 358 3 101 177 252 173 265 311 342 351 82 136 27 81 218 270 284 260 182 122 352 330 289 275 268 261 254 249 249 250 251 251
207 198 194 192 190 189 188 187 187 188 187 188 188 186 185 184 181 180 182 184 184 182 180 180 181 186 224 218 200 195 190 185 179 177 177 176 177 176 167 161 158 158 160 162 167 166 159 146 130 121 104 104 106 94 90 5 282 312 42 119 214 192 205 277 296 335 32 113 290 31 245 252 274 279 260 261 295 305 296 291 288 282 271 260 255 255 253 253
213 204 197 193 191 188 186 186 185 185 184 181 181 180 179 178 175 174 177 177 171 163 169 177 170 180 242 219 199 190 189 183 175 173 171 172 172 171 168 162 160 159 151 148 158 157 147 125 120 127 48 60 125 115 136 210 197 193 179 146 216 210 206 244 246 293 19 72 215 345 296 266 276 286 281 279 285 288 286 287 287 282 275 268 262 258 254 253
218 211 202 194 192 188 184 184 183 182 179 173 172 170 165 161 157 163 172 170 161 149 165 184 174 160 268 202 191 185 183 178 172 168 168 168 165 169 169 161 162 158 144 135 150 152 133 97 98 127 130 163 189 162 169 194 173 173 174 148 159 172 224 241 242 279 15 99 227 240 250 273 281 288 287 285 285 283 284 284 282 278 273 268 264 261 258 255
222 217 206 197 193 187 181 181 181 178 174 170 167 162 154 149 137 148 170 169 168 158 78 185 184 194 8 177 181 178 172 169 170 166 165 168 164 165 160 154 157 149 141 142 153 149 118 124 166 185 189 190 187 154 142 152 139 139 128 107 138 164 245 254 262 310 25 134 243 248 260 277 276 277 279 282 288 287 280 278 274 271 268 266 265 264 262 260
226 223 211 200 192 185 179 178 178 174 172 169 166 162 163 162 150 160 168 169 184 183 352 187 188 210 356 168 175 169 162 161 169 168 165 167 164 162 158 152 144 125 158 139 120 111 111 159 211 212 193 170 149 128 112 102 91 100 125 120 101 182 243 274 264 319 7 109 254 4 332 282 270 273 272 277 284 276 269 269 270 271 270 269 268 267 266 266
231 228 212 200 190 182 177 176 175 172 171 170 168 167 177 174 168 172 167 161 192 192 296 191 188 207 270 171 171 164 159 152 167 173 168 166 165 168 167 149 131 135 184 117 107 96 120 208 229 192 145 110 94 94 96 91 88 87 111 124 140 215 254 292 300 335 9 40 266 357 344 285 272 271 270 271 268 268 272 270 270 273 273 275 274 273 272 270
231 226 212 197 185 179 175 173 173 172 173 173 170 167 175 176 171 169 164 140 168 188 254 182 186 200 191 170 171 167 162 149 165 177 173 169 168 168 163 143 123 139 153 154 143 139 166 254 233 162 137 111 83 61 91 86 79 92 109 128 173 243 161 234 295 337 8 73 259 325 319 285 290 297 286 280 265 272 281 276 273 274 275 280 282 281 280 278
221 216 205 190 180 174 170 170 172 172 176 175 170 168 173 175 169 162 154 93 130 180 199 177 182 193 186 170 173 175 170 158 167 177 176 175 168 159 159 144 120 133 165 166 147 148 191 270 162 137 125 117 112 88 112 110 75 75 138 137 160 200 175 198 287 335 357 32 29 12 335 294 322 331 299 313 316 300 304 296 294 296 290 290 290 287 285 285
203 200 193 182 173 166 164 170 172 172 176 173 168 169 172 171 164 159 143 60 107 172 181 183 182 190 191 176 175 176 168 163 168 175 178 179 170 153 144 141 133 162 185 141 127 150 214 243 136 127 88 107 121 151 176 146 124 284 209 171 167 170 159 145 40 54 35 8 353 26 18 291 320 325 276 308 346 325 327 334 340 353 346 318 304 297 287 280
176 177 175 170 161 158 166 174 173 173 175 173 168 165 168 169 161 159 137 49 271 236 161 180 183 185 190 179 169 158 154 186 178 176 178 179 177 160 140 131 98 156 174 138 123 157 197 100 118 124 115 113 120 170 207 150 123 194 229 170 142 130 125 126 104 78 88 246 327 44 103 260 316 317 277 315 336 317 329 346 1 15 21 20 10 1 357 333
150 151 152 157 157 158 170 176 173 173 173 174 173 163 165 167 160 159 126 39 274 187 146 171 178 180 184 172 164 154 150 178 164 175 177 175 180 167 158 170 81 132 173 134 133 217 130 101 79 96 104 107 129 186 209 146 126 199 221 127 120 119 127 139 108 87 195 228 331 15 101 216 301 282 277 326 331 318 340 343 354 16 28 36 45 54 66 79
146 146 148 159 166 164 171 176 174 171 170 175 173 164 164 164 161 156 115 73 211 143 138 173 164 171 174 166 167 159 136 151 145 179 179 171 177 164 161 189 141 136 157 130 174 254 92 143 163 135 107 123 170 214 186 133 113 235 191 115 118 121 123 123 95 90 21 23 313 326 49 169 270 276 301 348 327 313 339 324 326 2 23 35 45 55 63 70
158 156 155 162 166 162 169 176 172 168 167 172 171 166 164 162 158 129 88 159 162 103 129 159 156 168 164 157 167 144 126 146 131 165 169 164 172 156 129 163 135 111 49 79 158 214 53 171 184 143 135 175 189 323 150 118 97 173 143 96 82 76 81 80 86 103 50 44 243 275 19 137 265 287 310 2 306 270 289 290 302 353 24 35 42 52 63 68
165 162 160 163 164 164 166 167 168 166 163 167 169 165 159 157 148 105 143 204 145 88 111 150 165 168 152 142 138 73 116 122 107 137 149 150 154 126 108 126 119 104 39 36 87 226 338 63 99 107 137 162 132 70 44 64 126 139 115 75 64 39 37 50 54 86 65 338 251 260 307 200 270 286 271 233 232 214 198 289 326 359 27 35 44 57 68 75
161 161 166 171 171 170 163 165 169 164 158 164 165 160 153 143 109 132 180 180 113 103 96 136 174 153 154 155 153 155 93 40 129 140 144 135 130 118 112 119 98 81 38 32 47 332 2 67 53 69 127 128 107 65 41 60 109 114 90 90 83 6 9 26 0 41 94 255 261 273 288 161 209 263 257 241 257 226 181 145 2 356 17 32 49 66 73 78
161 163 170 175 174 171 164 168 171 162 157 162 159 156 147 113 202 191 177 137 140 185 166 170 205 164 163 148 118 146 110 75 172 148 146 143 143 156 147 166 154 101 133 185 140 353 34 78 308 22 174 164 119 78 48 16 31 74 95 104 93 11 9 6 318 354 198 240 272 286 263 193 230 249 258 261 261 244 222 209 294 333 8 36 58 73 77 79
168 172 175 172 169 168 167 171 172 166 160 159 157 151 121 122 203 197 167 170 188 197 145 137 132 145 152 141 141 162 109 120 192 148 130 132 149 197 255 192 144 117 178 177 130 107 346 309 305 99 216 214 161 125 136 245 199 128 134 128 127 117 90 258 267 289 255 256 295 289 269 251 268 264 245 249 252 248 252 250 256 292 0 42 69 80 80 80
165 170 174 172 168 168 169 173 175 172 166 160 154 137 115 181 201 145 151 206 253 45 80 112 114 126 142 145 178 173 105 132 177 126 96 117 145 196 230 224 162 96 110 141 143 162 171 272 226 165 190 190 179 165 152 143 134 167 156 127 143 153 148 199 215 201 231 269 300 294 277 191 213 265 227 241 276 280 274 258 231 230 54 77 88 88 87 84
161 165 166 169 174 175 170 172 176 176 173 164 147 139 181 193 206 140 163 191 197 68 44 86 119 131 146 62 162 192 134 167 170 122 143 167 175 192 196 203 194 134 129 156 197 171 163 239 256 301 234 151 163 206 133 111 111 229 127 107 154 183 137 133 176 172 170 299 296 268 245 212 213 283 278 284 301 297 282 226 211 188 133 115 103 96 94 88
162 165 163 165 174 176 173 174 176 178 175 163 143 189 202 195 188 186 163 145 151 132 107 87 98 130 159 90 191 225 243 110 152 143 177 197 212 200 193 199 191 184 168 155 160 166 156 247 310 353 29 81 110 190 102 109 164 155 124 167 210 166 113 111 179 44 78 178 270 230 248 291 318 296 316 23 342 312 30 106 150 147 135 120 109 103 96 88
161 163 167 168 168 170 176 176 173 177 175 164 172 199 194 78 175 180 134 125 141 139 129 134 154 152 165 172 191 199 181 117 151 165 180 194 243 198 194 222 193 191 202 154 150 202 154 136 328 32 86 12 39 96 64 41 104 121 175 201 184 120 95 107 144 13 42 233 277 310 228 286 334 255 325 49 133 221 25 93 120 131 134 124 114 106 95 84
163 158 164 172 169 168 175 176 174 173 166 161 208 209 107 63 209 199 139 133 134 135 138 156 165 150 168 180 185 180 175 169 169 174 171 189 243 198 176 201 198 191 202 170 110 200 133 116 320 13 115 306 2 94 80 19 42 111 170 162 119 133 150 96 133 154 126 224 280 310 269 251 202 222 289 179 171 186 160 125 121 131 136 129 117 105 93 82
168 153 153 171 174 168 171 178 176 165 155 176 211 214 160 139 252 268 162 147 129 126 154 175 157 108 171 174 163 166 180 178 170 176 177 185 233 209 175 183 193 188 193 167 135 187 122 124 235 317 298 300 14 106 184 206 26 54 106 114 82 125 157 161 149 159 175 188 256 311 325 258 227 216 226 215 193 178 156 140 142 145 141 132 118 102 87 75
170 152 146 175 174 168 169 172 170 160 162 206 192 186 275 137 223 332 125 149 128 107 169 190 152 136 164 164 155 165 172 166 168 181 201 190 211 239 198 185 159 167 168 114 116 170 106 133 180 325 332 228 182 221 192 171 141 97 119 158 177 75 111 155 104 113 142 154 182 264 298 269 250 208 200 209 196 181 160 145 157 155 143 130 113 93 76 67
164 146 181 184 173 166 163 161 163 165 172 202 140 132 208 134 117 99 95 104 83 58 131 150 139 148 152 150 172 173 149 145 172 184 210 205 204 228 212 189 155 146 141 88 127 169 125 145 157 135 230 200 219 259 211 178 169 157 170 183 175 148 123 150 243 252 122 138 166 174 258 271 258 185 186 201 192 189 167 149 156 157 143 129 107 80 64 63
161 131 210 190 181 170 161 153 140 136 129 147 143 134 147 131 110 127 98 76 72 49 72 101 112 142 153 158 160 157 152 154 180 189 205 213 201 197 205 185 161 155 155 137 157 161 115 107 118 143 213 213 244 286 233 206 147 129 177 190 167 157 136 150 205 220 136 132 145 125 255 272 258 189 203 227 205 186 167 148 149 152 143 131 104 65 58 67
169 140 182 185 189 183 164 146 348 130 109 171 143 101 112 127 101 110 148 38 60 56 54 80 120 135 163 165 142 160 171 168 186 195 202 211 202 209 196 175 164 159 159 159 164 151 120 104 113 64 302 304 322 343 20 39 74 130 235 181 156 181 146 146 181 170 151 174 140 98 270 267 275 289 249 226 193 181 171 149 148 151 141 131 100 56 60 73
162 143 156 177 188 188 178 167 187 167 140 118 109 85 97 122 116 122 138 178 150 115 102 119 148 120 161 144 132 173 185 178 198 204 188 185 202 214 186 176 171 167 171 186 178 171 178 151 127 120 18 351 343 345 333 309 195 192 228 185 157 133 98 103 123 100 144 205 159 148 232 252 277 333 31 127 156 171 176 155 153 153 139 126 77 47 66 71
145 138 156 175 181 183 188 199 134 135 135 133 132 154 135 69 183 178 153 135 156 140 124 161 152 95 121 123 96 156 182 155 178 188 167 194 223 167 171 184 186 182 191 196 167 163 174 187 150 153 174 194 205 218 222 206 178 189 199 175 169 141 137 155 117 103 229 222 158 173 227 250 281 338 59 116 144 167 182 166 162 157 143 132 18 51 87 73
136 144 173 173 177 182 194 195 161 131 145 156 152 173 165 152 231 194 163 154 199 130 89 83 144 92 79 128 112 154 192 125 76 155 163 189 229 332 89 186 193 194 195 165 160 154 135 227 190 188 203 204 194 195 171 126 138 191 185 167 173 172 170 156 115 167 205 160 177 219 199 182 244 240 170 184 181 186 204 200 187 174 166 210 260 121 94 46
119 156 163 149 172 185 208 199 179 162 168 171 164 178 178 175 192 179 178 203 212 174 97 30 147 137 137 158 140 162 190 136 80 138 148 162 206 338 27 114 176 191 168 154 164 149 90 219 206 203 221 216 163 174 179 138 163 188 174 171 182 181 174 165 189 212 164 118 237 232 155 169 228 217 204 210 203 214 229 214 192 187 208 222 190 136 75 42
103 123 157 155 170 187 238 198 179 169 176 178 165 162 174 181 188 182 184 214 201 185 174 7 258 187 170 164 153 148 160 150 160 166 133 140 145 44 33 41 77 167 143 143 167 143 122 212 211 189 221 230 140 176 191 163 175 182 174 183 183 177 178 186 210 215 160 179 239 197 152 200 220 201 215 214 197 206 215 207 194 192 202 195 180 343 348 348
103 97 134 148 137 95 49 157 160 163 174 174 175 172 171 184 196 188 147 104 159 207 188 194 240 204 176 160 137 142 163 166 183 194 156 137 125 106 97 63 42 161 137 127 164 151 147 216 197 169 215 238 197 195 200 173 172 177 186 191 181 182 190 195 213 218 192 213 239 144 168 226 212 189 220 215 199 206 207 210 230 242 221 237 325 322 324 329
130 126 136 127 97 61 69 137 152 160 171 174 193 211 181 188 196 192 155 147 164 197 189 195 212 182 174 170 140 155 187 166 156 182 170 151 156 173 171 174 171 140 120 127 163 177 180 213 165 140 200 253 191 124 189 185 181 192 203 199 186 192 201 206 217 218 199 228 247 144 207 257 220 191 211 201 197 214 231 256 277 292 283 291 306 294 288 292
161 118 111 117 87 63 86 112 144 158 177 185 195 193 190 203 197 180 195 186 167 167 170 174 170 141 144 178 178 201 191 154 133 157 160 149 152 158 155 172 159 137 127 142 140 157 174 189 82 109 171 259 336 113 122 84 87 233 238 212 197 197 206 214 218 202 185 217 233 220 239 259 206 181 193 190 198 226 252 262 262 248 239 244 238 228 230 238
188 161 129 122 73 114 128 65 149 180 199 199 189 156 171 204 186 166 190 240 186 176 172 165 158 135 132 192 215 218 186 145 98 123 140 118 99 104 97 127 142 133 138 140 102 116 151 145 124 138 172 266 322 128 127 96 96 256 250 212 199 202 206 207 216 219 207 203 206 216 233 243 171 162 171 184 205 225 238 234 219 210 213 211 210 209 208 210